Terug naar catalogus

STARLINK-32331

ActiefCommunicatieVLEO
NORAD 61623·PAYLOAD·🇺🇸 United States

Gelanceerd Oct 23, 2024 vanaf Cape Canaveral Space Force Station

Loading…

Volgende Passages (komende 24 uur)

TLE

VersSource: CelesTrak SupGP

Epoch: Sep 14, 2026, 22:16 UTC

1 61623C 24191C   26257.92826389 -.00060715  00000+0 -21987-2 0  2570
2 61623  42.9999 169.2933 0001453 268.8352 230.9682 15.27615023    15

Volg STARLINK-32331 in realtime met AllMySat

Download on the App Store